When you browse on this site, cookies collect data to enhance your experience and personalize the content and advertising you see.
Visit our Privacy Policy to learn more. By continuing to use the site, you agree to this use of cookies and data.
  • In Romania
  • List of Countries
  • For 7 days
  • Water Temperature
  • Satellite Maps
  • Weather Map
  • Weather Widgets
  • user-avatar
    Login

    Hourly Weather Aleksandrów Łódzki

    Today, 22 May, Wednesday

    Time Temperature Precipitation Wind Pressure Humidity
    00:00 +13°C° 0 mm 2 mps 735 mmHg 92%
    01:00 +12°C° 0 mm 2 mps 735 mmHg 92%
    02:00 +11°C° 0 mm 3 mps 735 mmHg 93%
    03:00 +11°C° 0 mm 3 mps 735 mmHg 94%
    04:00 +10°C° 0 mm 3 mps 735 mmHg 95%
    05:00 +11°C° 0 mm 3 mps 735 mmHg 93%
    06:00 +12°C° 0 mm 3 mps 736 mmHg 90%
    07:00 +13°C° 0 mm 4 mps 736 mmHg 88%
    08:00 +14°C° 0 mm 4 mps 736 mmHg 85%
    09:00 +15°C° 0 mm 4 mps 736 mmHg 82%
    10:00 +15°C° 0 mm 4 mps 737 mmHg 79%
    11:00 +18°C° 0.3 mm 4 mps 737 mmHg 76%
    12:00 +19°C° 0.3 mm 5 mps 737 mmHg 73%
    13:00 +20°C° 0.3 mm 5 mps 737 mmHg 69%
    14:00 +20°C° 0.5 mm 4 mps 737 mmHg 70%
    15:00 +20°C° 0.5 mm 4 mps 737 mmHg 71%
    16:00 +20°C° 0.5 mm 4 mps 737 mmHg 72%
    17:00 +19°C° 0.6 mm 4 mps 737 mmHg 76%
    18:00 +18°C° 0.6 mm 3 mps 738 mmHg 80%
    19:00 +17°C° 0.6 mm 3 mps 738 mmHg 84%
    20:00 +16°C° 0.5 mm 3 mps 738 mmHg 87%
    21:00 +14°C° 0.5 mm 3 mps 739 mmHg 90%
    22:00 +14°C° 0.5 mm 3 mps 739 mmHg 93%
    23:00 +13°C° 0.3 mm 4 mps 739 mmHg 94%

    Tomorrow, 23 May, Thursday

    Time Temperature Precipitation Wind Pressure Humidity
    00:00 +13°C° 0.3 mm 4 mps 740 mmHg 95%
    01:00 +13°C° 0.3 mm 5 mps 740 mmHg 96%
    02:00 +13°C° 0.2 mm 5 mps 740 mmHg 96%
    03:00 +14°C° 0.2 mm 5 mps 740 mmHg 96%
    04:00 +14°C° 0.2 mm 5 mps 741 mmHg 95%
    05:00 +14°C° 0.3 mm 5 mps 741 mmHg 95%
    06:00 +14°C° 0.3 mm 5 mps 741 mmHg 95%
    07:00 +13°C° 0.3 mm 6 mps 742 mmHg 94%
    08:00 +13°C° 0.2 mm 6 mps 742 mmHg 94%
    09:00 +13°C° 0.2 mm 6 mps 742 mmHg 93%
    10:00 +13°C° 0.2 mm 6 mps 743 mmHg 93%
    11:00 +13°C° 0 mm 6 mps 743 mmHg 90%
    12:00 +14°C° 0 mm 7 mps 743 mmHg 87%
    13:00 +14°C° 0 mm 7 mps 743 mmHg 84%
    14:00 +15°C° 0 mm 7 mps 743 mmHg 81%
    15:00 +15°C° 0 mm 7 mps 743 mmHg 78%
    16:00 +16°C° 0 mm 6 mps 743 mmHg 75%
    17:00 +15°C° 0 mm 6 mps 744 mmHg 75%
    18:00 +15°C° 0 mm 5 mps 744 mmHg 75%
    19:00 +14°C° 0 mm 4 mps 744 mmHg 76%
    20:00 +14°C° 0 mm 4 mps 744 mmHg 72%
    21:00 +14°C° 0 mm 4 mps 745 mmHg 68%
    22:00 +13°C° 0 mm 4 mps 745 mmHg 64%
    23:00 +12°C° 0 mm 4 mps 745 mmHg 62%

    Day after tomorrow, 24 May, Friday

    Time Temperature Precipitation Wind Pressure Humidity
    00:00 +11°C° 0 mm 3 mps 745 mmHg 60%
    01:00 +10°C° 0 mm 3 mps 745 mmHg 58%
    02:00 +9°C° 0 mm 3 mps 745 mmHg 63%
    03:00 +8°C° 0 mm 3 mps 745 mmHg 68%
    04:00 +5°C° 0 mm 3 mps 744 mmHg 72%
    05:00 +8°C° 0 mm 3 mps 745 mmHg 73%
    06:00 +10°C° 0 mm 3 mps 745 mmHg 73%
    07:00 +11°C° 0 mm 3 mps 745 mmHg 73%
    08:00 +13°C° 0 mm 3 mps 745 mmHg 69%
    09:00 +15°C° 0 mm 4 mps 745 mmHg 65%
    10:00 +17°C° 0 mm 4 mps 744 mmHg 61%
    11:00 +18°C° 0 mm 4 mps 744 mmHg 61%
    12:00 +19°C° 0 mm 4 mps 744 mmHg 60%
    13:00 +19°C° 0 mm 4 mps 743 mmHg 60%
    14:00 +19°C° 0 mm 4 mps 743 mmHg 60%
    15:00 +19°C° 0 mm 4 mps 743 mmHg 61%
    16:00 +20°C° 0 mm 4 mps 742 mmHg 61%
    17:00 +19°C° 0 mm 3 mps 742 mmHg 66%
    18:00 +18°C° 0 mm 3 mps 742 mmHg 71%
    19:00 +17°C° 0 mm 2 mps 742 mmHg 76%
    20:00 +16°C° 0 mm 2 mps 742 mmHg 78%
    21:00 +15°C° 0 mm 2 mps 742 mmHg 80%
    22:00 +14°C° 0 mm 2 mps 742 mmHg 82%
    23:00 +14°C° 0 mm 2 mps 742 mmHg 82%

    25 May, Saturday

    Time Temperature Precipitation Wind Pressure Humidity
    00:00 +13°C° 0 mm 3 mps 742 mmHg 83%
    01:00 +12°C° 0 mm 3 mps 742 mmHg 83%
    02:00 +12°C° 0 mm 3 mps 741 mmHg 84%
    03:00 +11°C° 0 mm 3 mps 741 mmHg 86%
    04:00 +11°C° 0 mm 3 mps 741 mmHg 87%
    05:00 +12°C° 0.2 mm 4 mps 741 mmHg 85%
    06:00 +13°C° 0.2 mm 4 mps 741 mmHg 83%
    07:00 +14°C° 0.2 mm 4 mps 742 mmHg 82%
    08:00 +15°C° 0 mm 5 mps 742 mmHg 76%
    09:00 +16°C° 0 mm 5 mps 742 mmHg 70%
    10:00 +17°C° 0 mm 6 mps 742 mmHg 64%
    11:00 +19°C° 0 mm 6 mps 742 mmHg 62%
    12:00 +18°C° 0 mm 7 mps 742 mmHg 60%
    13:00 +18°C° 0 mm 7 mps 742 mmHg 58%
    14:00 +17°C° 0 mm 7 mps 742 mmHg 60%
    15:00 +16°C° 0 mm 6 mps 742 mmHg 63%
    16:00 +16°C° 0 mm 6 mps 742 mmHg 65%
    17:00 +15°C° 0 mm 5 mps 742 mmHg 69%
    18:00 +14°C° 0 mm 4 mps 742 mmHg 72%
    19:00 +13°C° 0 mm 3 mps 742 mmHg 76%
    20:00 +12°C° 0 mm 3 mps 742 mmHg 79%
    21:00 +11°C° 0 mm 3 mps 742 mmHg 82%
    22:00 +10°C° 0 mm 3 mps 742 mmHg 85%
    23:00 +10°C° 0 mm 3 mps 742 mmHg 86%

    26 May, Sunday

    Time Temperature Precipitation Wind Pressure Humidity
    00:00 +9°C° 0 mm 3 mps 742 mmHg 87%
    01:00 +8°C° 0 mm 4 mps 742 mmHg 88%
    02:00 +8°C° 0 mm 4 mps 742 mmHg 87%
    03:00 +8°C° 0 mm 4 mps 741 mmHg 85%
    04:00 +8°C° 0 mm 5 mps 741 mmHg 84%
    05:00 +9°C° 0 mm 5 mps 741 mmHg 83%
    06:00 +10°C° 0 mm 6 mps 741 mmHg 82%
    07:00 +10°C° 0 mm 7 mps 741 mmHg 81%
    08:00 +11°C° 0.1 mm 7 mps 741 mmHg 77%
    09:00 +11°C° 0.1 mm 7 mps 741 mmHg 73%
    10:00 +11°C° 0.1 mm 7 mps 741 mmHg 69%
    11:00 +12°C° 0 mm 7 mps 740 mmHg 66%
    12:00 +13°C° 0 mm 8 mps 740 mmHg 63%
    13:00 +15°C° 0 mm 8 mps 740 mmHg 61%
    14:00 +13°C° 0.2 mm 8 mps 740 mmHg 66%
    15:00 +12°C° 0.2 mm 8 mps 740 mmHg 71%
    16:00 +12°C° 0.2 mm 7 mps 740 mmHg 76%
    17:00 +12°C° 0.1 mm 7 mps 740 mmHg 78%
    18:00 +11°C° 0.1 mm 6 mps 740 mmHg 80%
    19:00 +11°C° 0.1 mm 6 mps 740 mmHg 82%
    20:00 +12°C° 0.1 mm 5 mps 740 mmHg 85%
    21:00 +11°C° 0.1 mm 4 mps 740 mmHg 87%
    22:00 +11°C° 0.1 mm 4 mps 741 mmHg 90%
    23:00 +11°C° 0.1 mm 4 mps 741 mmHg 91%

    27 May, Monday

    Time Temperature Precipitation Wind Pressure Humidity
    00:00 +11°C° 0.1 mm 4 mps 741 mmHg 92%
    01:00 +11°C° 0.1 mm 4 mps 741 mmHg 94%
    02:00 +10°C° 0 mm 3 mps 741 mmHg 94%
    03:00 +10°C° 0 mm 3 mps 741 mmHg 94%
    04:00 +10°C° 0 mm 2 mps 741 mmHg 94%
    05:00 +11°C° 0 mm 3 mps 741 mmHg 90%
    06:00 +12°C° 0 mm 3 mps 741 mmHg 86%
    07:00 +13°C° 0 mm 4 mps 741 mmHg 82%
    08:00 +13°C° 0 mm 4 mps 741 mmHg 81%
    09:00 +14°C° 0 mm 4 mps 741 mmHg 80%
    10:00 +15°C° 0 mm 5 mps 741 mmHg 79%
    11:00 +17°C° 0.3 mm 5 mps 740 mmHg 76%
    12:00 +19°C° 0.3 mm 6 mps 740 mmHg 72%
    13:00 +20°C° 0.3 mm 6 mps 739 mmHg 69%
    14:00 +20°C° 0.7 mm 6 mps 739 mmHg 72%
    15:00 +20°C° 0.7 mm 6 mps 739 mmHg 75%
    16:00 +19°C° 0.7 mm 6 mps 739 mmHg 78%
    17:00 +19°C° 0.3 mm 5 mps 739 mmHg 81%
    18:00 +17°C° 0.3 mm 5 mps 739 mmHg 84%
    19:00 +17°C° 0.3 mm 4 mps 739 mmHg 87%
    20:00 +17°C° 0 mm 3 mps 740 mmHg 89%
    21:00 +16°C° 0 mm 3 mps 740 mmHg 91%
    22:00 +14°C° 0 mm 3 mps 741 mmHg 93%
    23:00 +13°C° 0 mm 3 mps 741 mmHg 93%
    Show more